Back to catalog

COSMOS 1513

AliveNavigationPO
NORAD 14546·PAYLOAD·🇷🇺 Russia

Launched Dec 8, 1983 from Plesetsk Cosmodrome

Loading…

Next Passes (next 24 hours)

TLE

FreshSource: Space-Track

Epoch: Sep 14, 2026, 04:50 UTC

1 14546U 83120A   26257.20155334  .00000062  00000-0  49508-4 0  9997
2 14546  82.9426 166.5982 0038940  12.0624 139.9537 13.74472092144532

Track COSMOS 1513 in real time with AllMySat

Download on the App Store